Other Public Products
Issued by NWS Grand Forks, ND

Home | Current Version | Previous Version | Graphics & Text | Print | Product List | Glossary On
Versions: 1 2 3 4 5 6 7 8 9 10 11 12 13 14 15 16 17 18 19 20 21 22 23 24 25 26 27 28 29 30 31 32 33 34 35 36 37 38 39 40 41 42 43 44 45 46 47 48 49 50
000
FPUS83 KFGF 031331
OPUFGF
PRAIRIE TO PINES WEATHER ROUNDUP
NATIONAL WEATHER SERVICE EASTERN NORTH DAKOTA/GRAND FORKS ND
800 AM CDT TUE MAY 03 2016

 **SATELLITE DATA USED TO AUGMENT SKY COVER AT AUTOMATED STATIONS**
 *****  WEATHER ACROSS EASTERN NORTH DAKOTA  *****

CITY           SKY/WX    TMP DP  RH WIND       PRES   REMARKS
GRAND FORKS    PTSUNNY   57  38  48 W15       29.84F
GRAND FORKS AF NOT AVBL
GRAND CITY NWS NOT AVBL
BUXTON           N/A     56  46  68 W17         N/A
DEVILS LAKE    MOSUNNY   52  42  69 NW13      29.92S
FARGO          MOSUNNY   50  40  68 SW12      29.91S
WAHPETON ARPT  MOSUNNY   52  41  66 W13       29.94S
$$

 *****  WEATHER ACROSS CENTRAL AND WESTERN NORTH DAKOTA  *****

CITY           SKY/WX    TMP DP  RH WIND       PRES   REMARKS
JAMESTOWN      CLOUDY    50  44  80 W10       29.93F
BISMARCK       SUNNY     47  40  76 W7        30.01S
MINOT          SUNNY     59  31  34 W15       29.97R
MINOT AFB      NOT AVBL
GARRISON         N/A     47  36  65 CALM      29.99S
WILLISTON      SUNNY     46  38  73 CALM      30.05R
DICKINSON      SUNNY     45  37  73 W7        30.03R
HETTINGER      SUNNY     42  36  79 W3        30.07R
$$

 *****  OTHER OBSERVATIONS NORTHEAST NORTH DAKOTA  *****

CITY           SKY/WX    TMP DP  RH WIND       PRES   REMARKS
WALHALLA       NOT AVBL
LANGDON        FAIR      54  36  50 N15       29.91R
CAVALIER       FAIR      55  37  50 N17G28    29.88R
GRAFTON        FAIR      57  39  51 NW18G26   29.86S
CANDO          FAIR      48  39  71 NW12      29.96R
FORT TOTTEN      N/A     51  42  71 W5        29.95S
ROLLA          NOT AVBL
RUGBY          FAIR      48  41  76 NW7       29.95S
 ***** THE ABOVE OBSERVATIONS ARE NON NWS ARE NOT QUALITY
        CONTROLLED AND MAY MIS-REPORT RAIN FOR SNOW...
$$

 *****  OTHER OBSERVATIONS SOUTHEAST NORTH DAKOTA *****

CITY           SKY/WX    TMP DP  RH WIND       PRES   REMARKS
COOPERSTOWN    NOT AVBL
VALLEY CITY    FAIR      50  46  87 W12       29.94F
OAKES            N/A    N/A N/A N/A MISG        N/A
GWINNER        FAIR      48  45  87 W9        29.96S
BUFFALO          N/A     50  42  75 W9          N/A
WYNDMERE         N/A     52  43  71 W13         N/A
 ***** THE ABOVE OBSERVATIONS ARE NON NWS ARE NOT QUALITY
       CONTROLLED AND MAY MIS-REPORT RAIN FOR SNOW...
$$

  *****  WEATHER ACROSS NORTHERN MINNESOTA  *****

CITY           SKY/WX    TMP DP  RH WIND       PRES   REMARKS
FLAG ISLAND    MOSUNNY   50  39  66 NW15      29.76R
WARROAD        MOSUNNY   54  43  66 NW13      29.79R
ROSEAU         PTSUNNY   55  43  62 NW13      29.79S
HALLOCK        MOSUNNY   55  37  50 N16G23    29.82S
THF RVR FALLS  CLOUDY    55  36  47 W18       29.84F
HALSTAD        NOT AVBL
FOSSTON        PTSUNNY   52  37  58 SW10      29.86F
BAUDETTE       CLOUDY    54  36  50 NW16G24   29.76R
WASKISH        CLOUDY   N/A N/A N/A SW15G21   29.77F
CROOKSTON      MOSUNNY   55  39  54 W16       29.85F
$$
  *****  WEATHER ACROSS CENTRAL AND WEST MINNESOTA  *****

CITY           SKY/WX    TMP DP  RH WIND       PRES   REMARKS
BEMIDJI        PTSUNNY   54  36  51 W15G21    29.84S
PARK RAPIDS    CLOUDY    53  39  59 W14       29.87F
WADENA         CLOUDY    50  39  66 W9        29.90F
DETROIT LAKES  MOSUNNY   54  41  62 W10       29.90F
MOORHEAD       MOSUNNY   52  43  71 SW8       29.91F
FERGUS FALLS   PTSUNNY   48  39  71 W7        29.92F
ELBOW LAKE     FAIR      50  40  69 NW7       29.95F
MORRIS MN      MOSUNNY   54  43  66 W8        29.95F
STAPLES        CLOUDY    52  37  58 W14       29.90F
WHEATON        SUNNY     55  45  67 SW8       29.96F
$$
  *****  WEATHER ELSEWHERE ACROSS MINNESOTA  *****

CITY           SKY/WX    TMP DP  RH WIND       PRES   REMARKS
DULUTH         CLOUDY    53  35  50 W14       29.80F
INTRNTL FALLS  CLOUDY    51  36  56 W8        29.73S
ELY            CLOUDY    52  34  50 W13G20    29.72S
CLOQUET        CLOUDY    54  32  43 W9G16     29.81F
BRAINERD       MOSUNNY   51  37  58 W12       29.89F
HIBBING        CLOUDY    52  36  54 W12G18    29.77F
ALEXANDRIA     SUNNY     51  40  65 NW13      29.95F
SAINT CLOUD    CLOUDY    51  40  65 W5        29.92F
MINNEAPOLIS    PTSUNNY   51  38  60 SW6       29.94S
$$

  *****  WEATHER ACROSS SOUTH DAKOTA  *****

CITY           SKY/WX    TMP DP  RH WIND       PRES   REMARKS
SIOUX FALLS    MOSUNNY   47  41  80 W3        30.03R
BROOKINGS      SUNNY     43  40  89 CALM      30.01S
WATERTOWN      SUNNY     46  41  82 SW3       29.99F
HURON          SUNNY     45  42  89 MISG      30.03R
SISSETON         N/A     52  43  71 W7        29.95F
ABERDEEN       SUNNY     41  38  89 SW6       29.99F
MITCHELL       SUNNY     47  44  90 W8        30.05R
PIERRE         SUNNY     41  39  93 SW5       30.04R
MOBRIDGE       SUNNY     47  44  90 CALM      30.00R
RAPID CITY     SUNNY     45  34  65 NW9       30.09R
$$

  *****  SOME WEATHER IN NEARBY STATES *****

CITY           SKY/WX    TMP DP  RH WIND       PRES   REMARKS
GLASGOW MT     SUNNY     46  40  79 NW6       30.07R
GREAT FALLS MT CLEAR     41  35  79 SW6       30.12R
CHEYENNE WY    PTSUNNY   43  29  57 NW10      30.19R
SCOTTSBLUFF NE SUNNY     41  36  82 W7        30.14R
OMAHA NE       SUNNY     50  45  83 CALM      30.07R
DES MOINES IA  MOSUNNY   49  43  80 CALM      30.05R
DAVENPORT IA   SUNNY     49  42  77 NW7       30.02S
CHICAGO IL     PTSUNNY   49  36  61 W7        29.97S
EAU CLAIRE WI  SUNNY     51  39  63 SW9       29.91F
LA CROSSE WI   SUNNY     53  42  66 S6        29.96S
$$

  *****  SOME NATIONAL WEATHER *****

CITY           SKY/WX    TMP DP  RH WIND       PRES   REMARKS
LA GUARDIA NY  LGT RAIN  54  50  87 NE15G25   29.86F
RALEIGH NC     CLOUDY    66  64  94 SW6       29.86R
ATLANTA GA     PTSUNNY   69  63  81 W8        29.91S
NEW ORLEANS LA CLOUDY    72  67  84 N10       29.96R
OKLAHOMA CITY  MOSUNNY   47  44  90 SW5       30.11R
ALBUQUERQUE NM PTCLDY    47  37  68 SW8       30.19R
SALT LAKE CITY FAIR      48  35  60 SE6       30.22R
LOS ANGELES CA FAIR      57  54  89 W3        29.96R
BOISE ID       FAIR      53  31  42 SE8       30.12R
SEATTLE WA     MOCLDY    56  51  84 S7        30.03R
$$

*** WEATHER ACROSS MANITOBA...SASKATCHEWAN AND ONTARIO ***
                ***ONTARIO***

CITY           SKY/WX    TMP DP  RH WIND       PRES   REMARKS
GERALDTON      LGT RAIN  43  39  87 W5        29.62S
THUNDER BAY    LGT RAIN  45  39  81 SE7       29.63F
SIOUX LOOKOUT  MOSUNNY   50  37  62 N9        29.66R
TORONTO        MOSUNNY   52  39  62 VRB2      29.91F
BIG TROUT LK   CLOUDY    34  34 100 N12G23    29.70R FOG
PICKLE LAKE    PTSUNNY   43  32  65 N10G20    29.65R
DRYDEN         SUNNY     52  37  58 N10       29.68F
KENORA         MOSUNNY   52  36  54 NW14G20   29.75R
$$
                *** MANITOBA***

CITY           SKY/WX    TMP DP  RH WIND       PRES   REMARKS
BRANDON        MOSUNNY   50  34  53 N12       29.97R
DAUPHIN        SUNNY     50  32  50 N14       30.01R
ISLAND LAKE    PTSUNNY   36  28  75 N15G22    29.92
PILOT MOUND      N/A     52  36  54 N12         N/A
THE PAS        MOSUNNY   39  30  70 N9        30.09R
THOMPSON       MOSUNNY   37  28  70 NE15      30.03R
WINNIPEG       MOSUNNY   52  32  46 N18G25    29.89R
LYNN LAKE      MOSUNNY   37  32  81 N5        30.10R
CHURCHILL      CLOUDY    27  23  86 N21G29    30.07R WCI  13
GILLAM         CLOUDY    30  27  86 N16G23    30.00R WCI  19
$$
                ***SASKATCHEWAN***

CITY           SKY/WX    TMP DP  RH WIND       PRES   REMARKS
ESTEVAN        MOSUNNY   50  36  57 N7        30.03R
KINDERSLEY     MOSUNNY   54  41  62 NE5       30.04R
LLOYDMINSTER   MOSUNNY   57  43  58 SW7       30.01R
PRINCE ALBERT  MOSUNNY   43  36  75 E7        30.07S
REGINA         SUNNY     50  34  53 CALM      30.04R
YORKTON        SUNNY     50  37  62 N6        30.06R
N. BATTLEFORD  SUNNY     50  41  71 E5        30.05R   C1F1C2F2C3F3C4F4C5F5C6F6C7F7C8F8C9F9CaFaCbFbCcFcCdFdCe!


USA.gov is the U.S. government's official web portal to all federal, state and local government web resources and services.